Location: Chuathbaluk
(61.5726°N, 159.2454°W)
Time: 02:09:04
(UTC+00:00)

TIGRISAT - Pass Details

Date: 26 January 2021
Orbit: 605 x 688 km, 97.7° (Epoch: 05 March)

Event Time Altitude Azimuth Distance (km) Brightness Sun altitude
Rises 15:16:21 0° 112° (ESE) 2,901 ? -27.3°
Reaches altitude 10° 15:18:55 10° 97° (E) 2,011 ? -27.0°
Maximum altitude 15:22:13 21° 48° (NE) 1,426 ? -26.6°
Drops below altitude 10° 15:25:34 10° 359° (N) 2,056 ? -26.2°
Enters shadow 15:27:06 - 350° (N) 2,571 ? -26.0°
